Location: St. Louis
(38.6270°N, 90.1994°W)
Time: 04:12:28
(UTC-05:00)

ISS - Pass Details

Date: 25 October 2013
Orbit: 401 x 404 km, 51.6° (Epoch: 30 July)

Event Time Altitude Azimuth Distance (km) Brightness Sun altitude
Rises 20:24:07 0° 309° (NW) 2,363 1.4 -27.1°
Reaches altitude 10° 20:26:13 10° 310° (NW) 1,498 0.2 -27.5°
Enters shadow 20:27:09 17° 311° (NW) 1,128 -0.5 -27.6°
